Time,TemperatureF,DewpointF,PressureIn,WindDirection,WindDirectionDegrees,WindSpeedMPH,WindSpeedGustMPH,Humidity,HourlyPrecipIn,Conditions,Clouds,dailyrainin,SoftwareType,DateUTC
2013-05-17 13:23:00,68.4,64.4,30.01,South,183,3.0,5.0,87,0.00,,,0.20,Wunderground v.1.15,2013-05-17 18:23:00,
2013-05-17 13:24:00,68.4,64.4,30.01,South,173,3.0,5.0,87,0.00,,,0.20,Wunderground v.1.15,2013-05-17 18:24:00,
2013-05-17 13:28:00,68.3,64.6,30.01,East,84,3.0,5.0,88,0.00,,,0.20,Wunderground v.1.15,2013-05-17 18:28:00,
2013-05-17 13:30:00,68.3,64.6,30.01,South,175,3.0,5.0,88,0.00,,,0.20,Wunderground v.1.15,2013-05-17 18:30:00,
2013-05-17 13:34:00,68.3,64.9,30.01,NE,56,2.0,3.0,89,0.00,,,0.20,Wunderground v.1.15,2013-05-17 18:34:00,
2013-05-17 13:41:00,68.3,64.6,30.01,ENE,74,2.0,5.0,88,0.00,,,0.20,Wunderground v.1.15,2013-05-17 18:41:00,
2013-05-17 13:47:00,68.2,64.5,30.01,North,355,1.0,2.0,88,0.00,,,0.20,Wunderground v.1.15,2013-05-17 18:47:00,
2013-05-17 13:52:00,68.1,64.7,30.01,East,90,1.0,3.0,89,0.00,,,0.20,Wunderground v.1.15,2013-05-17 18:52:00,
2013-05-17 13:58:00,68.0,64.6,30.01,ESE,103,2.0,4.0,89,0.00,,,0.20,Wunderground v.1.15,2013-05-17 18:58:00,
2013-05-17 14:04:00,67.8,64.4,30.01,ENE,57,2.0,4.0,89,0.00,,,0.20,Wunderground v.1.15,2013-05-17 19:04:00,
2013-05-17 14:10:00,67.6,64.2,30.01,SSE,152,2.0,2.0,89,0.00,,,0.20,Wunderground v.1.15,2013-05-17 19:10:00,
2013-05-17 14:16:00,67.5,64.5,30.00,NE,43,1.0,2.0,90,0.00,,,0.20,Wunderground v.1.15,2013-05-17 19:16:00,
2013-05-17 14:22:00,67.4,64.4,30.00,ENE,78,2.0,3.0,90,0.00,,,0.20,Wunderground v.1.15,2013-05-17 19:22:00,
2013-05-17 14:35:00,67.6,65.2,30.00,ENE,72,2.0,2.0,92,0.00,,,0.21,Wunderground v.1.15,2013-05-17 19:35:00,
2013-05-17 14:40:00,67.9,65.5,30.00,ENE,59,2.0,2.0,92,0.00,,,0.21,Wunderground v.1.15,2013-05-17 19:40:00,
2013-05-17 14:46:00,68.2,65.2,30.00,NE,55,2.0,4.0,90,0.00,,,0.21,Wunderground v.1.15,2013-05-17 19:46:00,
2013-05-17 14:51:00,68.5,65.8,30.00,NE,42,3.0,5.0,91,0.00,,,0.21,Wunderground v.1.15,2013-05-17 19:51:00,
2013-05-17 14:56:00,68.6,65.5,30.00,ENE,61,3.0,4.0,90,0.00,,,0.21,Wunderground v.1.15,2013-05-17 19:56:00,
2013-05-17 15:02:00,68.5,65.1,29.99,East,86,2.0,3.0,89,0.00,,,0.21,Wunderground v.1.15,2013-05-17 20:02:00,
2013-05-17 15:08:00,68.5,65.1,29.99,NE,42,2.0,6.0,89,0.00,,,0.21,Wunderground v.1.15,2013-05-17 20:08:00,
2013-05-17 15:14:00,68.3,64.9,29.99,ENE,69,3.0,5.0,89,0.00,,,0.21,Wunderground v.1.15,2013-05-17 20:14:00,
2013-05-17 15:19:00,68.2,65.2,29.99,ENE,59,2.0,5.0,90,0.00,,,0.21,Wunderground v.1.15,2013-05-17 20:19:00,
2013-05-17 15:24:00,68.2,64.8,29.99,East,100,1.0,2.0,89,0.00,,,0.21,Wunderground v.1.15,2013-05-17 20:24:00,
2013-05-17 15:30:00,68.2,64.8,29.99,SSE,153,1.0,1.0,89,0.00,,,0.21,Wunderground v.1.15,2013-05-17 20:30:00,
2013-05-17 15:35:00,68.2,64.8,29.99,NE,42,1.0,3.0,89,0.00,,,0.21,Wunderground v.1.15,2013-05-17 20:35:00,
2013-05-17 15:41:00,68.3,65.3,29.99,ENE,59,2.0,4.0,90,0.00,,,0.21,Wunderground v.1.15,2013-05-17 20:41:00,
2013-05-17 15:47:00,68.1,64.7,29.99,West,273,2.0,4.0,89,0.00,,,0.21,Wunderground v.1.15,2013-05-17 20:47:00,
2013-05-17 15:52:00,67.9,64.9,29.98,ENE,70,1.0,4.0,90,0.00,,,0.22,Wunderground v.1.15,2013-05-17 20:52:00,
2013-05-17 15:57:00,67.6,64.6,29.98,NE,51,1.0,4.0,90,0.00,,,0.22,Wunderground v.1.15,2013-05-17 20:57:00,
2013-05-17 16:03:00,67.4,64.7,29.98,NE,53,1.0,1.0,91,0.00,,,0.22,Wunderground v.1.15,2013-05-17 21:03:00,
2013-05-17 16:08:00,67.2,64.8,29.98,ENE,67,1.0,3.0,92,0.04,,,0.23,Wunderground v.1.15,2013-05-17 21:08:00,
2013-05-17 16:14:00,67.0,64.6,29.97,ENE,71,2.0,4.0,92,0.04,,,0.23,Wunderground v.1.15,2013-05-17 21:14:00,
2013-05-17 16:19:00,67.2,65.1,29.97,ENE,61,3.0,7.0,93,0.04,,,0.23,Wunderground v.1.15,2013-05-17 21:19:00,
2013-05-17 16:24:00,67.5,65.4,29.97,East,93,4.0,6.0,93,0.00,,,0.23,Wunderground v.1.15,2013-05-17 21:24:00,
2013-05-17 16:29:00,68.0,65.9,29.97,ENE,71,4.0,6.0,93,0.00,,,0.23,Wunderground v.1.15,2013-05-17 21:29:00,
2013-05-17 16:34:00,68.3,65.6,29.97,NE,54,4.0,7.0,91,0.00,,,0.23,Wunderground v.1.15,2013-05-17 21:34:00,
2013-05-17 16:39:00,68.7,66.0,29.97,ENE,65,4.0,7.0,91,0.00,,,0.23,Wunderground v.1.15,2013-05-17 21:39:00,
2013-05-17 16:44:00,68.8,65.7,29.97,ENE,68,3.0,4.0,90,0.00,,,0.23,Wunderground v.1.15,2013-05-17 21:44:00,
2013-05-17 16:49:00,69.0,65.9,29.97,ENE,57,3.0,5.0,90,0.00,,,0.23,Wunderground v.1.15,2013-05-17 21:49:00,
2013-05-17 16:55:00,68.8,65.4,29.97,ENE,60,4.0,7.0,89,0.00,,,0.23,Wunderground v.1.15,2013-05-17 21:55:00,
2013-05-17 17:00:00,68.6,65.2,29.97,East,80,4.0,4.0,89,0.00,,,0.23,Wunderground v.1.15,2013-05-17 22:00:00,
2013-05-17 17:06:00,68.3,65.3,29.97,NE,51,4.0,7.0,90,0.00,,,0.23,Wunderground v.1.15,2013-05-17 22:06:00,
2013-05-17 17:12:00,68.1,65.1,29.97,ENE,64,4.0,5.0,90,0.00,,,0.23,Wunderground v.1.15,2013-05-17 22:12:00,
2013-05-17 17:17:00,68.1,65.1,29.97,ENE,65,4.0,5.0,90,0.00,,,0.23,Wunderground v.1.15,2013-05-17 22:17:00,
2013-05-17 17:23:00,68.2,65.2,29.97,NE,54,4.0,5.0,90,0.00,,,0.23,Wunderground v.1.15,2013-05-17 22:23:00,
2013-05-17 17:28:00,68.3,65.3,29.97,NE,53,4.0,5.0,90,0.00,,,0.23,Wunderground v.1.15,2013-05-17 22:28:00,
2013-05-17 17:34:00,68.4,65.7,29.97,ENE,69,3.0,4.0,91,0.00,,,0.23,Wunderground v.1.15,2013-05-17 22:34:00,
2013-05-17 17:39:00,68.4,65.7,29.97,ENE,73,3.0,5.0,91,0.00,,,0.23,Wunderground v.1.15,2013-05-17 22:39:00,
2013-05-17 17:44:00,68.3,65.3,29.96,East,98,4.0,4.0,90,0.00,,,0.23,Wunderground v.1.15,2013-05-17 22:44:00,
2013-05-17 17:50:00,68.3,65.6,29.96,East,87,3.0,3.0,91,0.00,,,0.23,Wunderground v.1.15,2013-05-17 22:50:00,
2013-05-17 17:56:00,68.3,65.6,29.96,ENE,62,3.0,4.0,91,0.00,,,0.23,Wunderground v.1.15,2013-05-17 22:56:00,
2013-05-17 18:02:00,68.4,65.7,29.96,ENE,64,3.0,3.0,91,0.00,,,0.23,Wunderground v.1.15,2013-05-17 23:02:00,